When you browse on this site, cookies collect data to enhance your experience and personalize the content and advertising you see.
Visit our Privacy Policy to learn more. By continuing to use the site, you agree to this use of cookies and data.
  • In Hungary
  • List of Countries
  • For 7 days
  • Water Temperature
  • Weather Map
  • News
  • Weather Widgets
  • user-avatar
    Login

    Hourly Weather Krzyzanki

    Today, 20 August, Tuesday

    Time Temperature Precipitation Wind Pressure Humidity
    00:00 +16°C° 0 mm 0 mps 754 mmHg 85%
    01:00 +16°C° 0 mm 0 mps 754 mmHg 85%
    02:00 +18°C° 0 mm 1 mps 754 mmHg 84%
    03:00 +18°C° 0 mm 1 mps 755 mmHg 83%
    04:00 +18°C° 0 mm 1 mps 755 mmHg 82%
    05:00 +19°C° 0 mm 1 mps 755 mmHg 79%
    06:00 +19°C° 0 mm 1 mps 755 mmHg 77%
    07:00 +20°C° 0 mm 1 mps 756 mmHg 73%
    08:00 +22°C° 0 mm 1 mps 756 mmHg 65%
    09:00 +23°C° 0 mm 2 mps 756 mmHg 58%
    10:00 +25°C° 0 mm 2 mps 756 mmHg 50%
    11:00 +26°C° 0 mm 3 mps 755 mmHg 46%
    12:00 +27°C° 0 mm 3 mps 755 mmHg 43%
    13:00 +28°C° 0 mm 3 mps 755 mmHg 39%
    14:00 +28°C° 0.1 mm 3 mps 755 mmHg 42%
    15:00 +27°C° 0.1 mm 3 mps 755 mmHg 44%
    16:00 +26°C° 0.1 mm 3 mps 754 mmHg 47%
    17:00 +24°C° 0.8 mm 3 mps 754 mmHg 57%
    18:00 +21°C° 0.8 mm 2 mps 754 mmHg 68%
    19:00 +19°C° 0.8 mm 2 mps 754 mmHg 79%
    20:00 +19°C° 1.9 mm 3 mps 754 mmHg 83%
    21:00 +18°C° 1.9 mm 4 mps 755 mmHg 87%
    22:00 +18°C° 1.9 mm 4 mps 755 mmHg 91%
    23:00 +17°C° 2.9 mm 4 mps 755 mmHg 92%

    Tomorrow, 21 August, Wednesday

    Time Temperature Precipitation Wind Pressure Humidity
    00:00 +17°C° 2.9 mm 4 mps 755 mmHg 94%
    01:00 +17°C° 2.9 mm 4 mps 755 mmHg 95%
    02:00 +17°C° 1.6 mm 4 mps 755 mmHg 94%
    03:00 +15°C° 1.6 mm 5 mps 756 mmHg 94%
    04:00 +15°C° 1.6 mm 6 mps 756 mmHg 93%
    05:00 +15°C° 1 mm 5 mps 757 mmHg 93%
    06:00 +14°C° 1 mm 5 mps 757 mmHg 93%
    07:00 +14°C° 1 mm 4 mps 758 mmHg 93%
    08:00 +14°C° 0.1 mm 3 mps 758 mmHg 92%
    09:00 +16°C° 0.1 mm 3 mps 759 mmHg 91%
    10:00 +16°C° 0.1 mm 3 mps 759 mmHg 90%
    11:00 +17°C° 0 mm 2 mps 759 mmHg 83%
    12:00 +18°C° 0 mm 2 mps 759 mmHg 76%
    13:00 +21°C° 0 mm 1 mps 759 mmHg 70%
    14:00 +21°C° 0 mm 1 mps 759 mmHg 65%
    15:00 +22°C° 0 mm 1 mps 759 mmHg 59%
    16:00 +23°C° 0 mm 1 mps 759 mmHg 54%
    17:00 +22°C° 0.1 mm 1 mps 759 mmHg 59%
    18:00 +21°C° 0.1 mm 1 mps 759 mmHg 65%
    19:00 +19°C° 0.1 mm 1 mps 759 mmHg 70%
    20:00 +19°C° 0 mm 1 mps 760 mmHg 72%
    21:00 +18°C° 0 mm 1 mps 760 mmHg 75%
    22:00 +16°C° 0 mm 1 mps 760 mmHg 78%
    23:00 +16°C° 0 mm 1 mps 760 mmHg 80%

    Day after tomorrow, 22 August, Thursday

    Time Temperature Precipitation Wind Pressure Humidity
    00:00 +15°C° 0 mm 1 mps 760 mmHg 82%
    01:00 +15°C° 0 mm 1 mps 760 mmHg 85%
    02:00 +15°C° 0 mm 1 mps 760 mmHg 85%
    03:00 +14°C° 0 mm 0 mps 760 mmHg 86%
    04:00 +13°C° 0 mm 0 mps 760 mmHg 87%
    05:00 +14°C° 0 mm 0 mps 760 mmHg 83%
    06:00 +16°C° 0 mm 1 mps 760 mmHg 80%
    07:00 +18°C° 0 mm 1 mps 760 mmHg 76%
    08:00 +20°C° 0 mm 1 mps 760 mmHg 70%
    09:00 +20°C° 0 mm 2 mps 760 mmHg 64%
    10:00 +23°C° 0 mm 2 mps 760 mmHg 58%
    11:00 +22°C° 0 mm 3 mps 760 mmHg 55%
    12:00 +24°C° 0 mm 3 mps 760 mmHg 52%
    13:00 +25°C° 0 mm 3 mps 760 mmHg 48%
    14:00 +25°C° 0 mm 3 mps 759 mmHg 48%
    15:00 +25°C° 0 mm 2 mps 759 mmHg 49%
    16:00 +25°C° 0 mm 2 mps 759 mmHg 49%
    17:00 +23°C° 0 mm 2 mps 759 mmHg 53%
    18:00 +21°C° 0 mm 2 mps 759 mmHg 58%
    19:00 +20°C° 0 mm 2 mps 759 mmHg 63%
    20:00 +19°C° 0 mm 2 mps 759 mmHg 65%
    21:00 +18°C° 0 mm 2 mps 759 mmHg 66%
    22:00 +17°C° 0 mm 2 mps 760 mmHg 68%
    23:00 +17°C° 0 mm 2 mps 760 mmHg 70%

    23 August, Friday

    Time Temperature Precipitation Wind Pressure Humidity
    00:00 +16°C° 0 mm 2 mps 759 mmHg 72%
    01:00 +16°C° 0 mm 2 mps 759 mmHg 73%
    02:00 +16°C° 0 mm 2 mps 759 mmHg 75%
    03:00 +15°C° 0 mm 2 mps 759 mmHg 77%
    04:00 +15°C° 0 mm 2 mps 759 mmHg 78%
    05:00 +16°C° 0 mm 2 mps 759 mmHg 76%
    06:00 +17°C° 0 mm 2 mps 760 mmHg 74%
    07:00 +18°C° 0 mm 2 mps 760 mmHg 72%
    08:00 +19°C° 0 mm 2 mps 760 mmHg 66%
    09:00 +21°C° 0 mm 3 mps 760 mmHg 60%
    10:00 +24°C° 0 mm 3 mps 760 mmHg 54%
    11:00 +25°C° 0 mm 3 mps 760 mmHg 50%
    12:00 +26°C° 0 mm 3 mps 759 mmHg 47%
    13:00 +27°C° 0 mm 4 mps 759 mmHg 44%
    14:00 +27°C° 0 mm 3 mps 759 mmHg 44%
    15:00 +27°C° 0 mm 3 mps 758 mmHg 44%
    16:00 +27°C° 0 mm 3 mps 758 mmHg 44%
    17:00 +25°C° 0 mm 3 mps 758 mmHg 49%
    18:00 +24°C° 0 mm 3 mps 758 mmHg 55%
    19:00 +21°C° 0 mm 3 mps 758 mmHg 60%
    20:00 +20°C° 0 mm 3 mps 758 mmHg 62%
    21:00 +19°C° 0 mm 3 mps 758 mmHg 64%
    22:00 +19°C° 0 mm 3 mps 758 mmHg 66%
    23:00 +18°C° 0 mm 3 mps 758 mmHg 69%

    24 August, Saturday

    Time Temperature Precipitation Wind Pressure Humidity
    00:00 +18°C° 0 mm 3 mps 758 mmHg 71%
    01:00 +17°C° 0 mm 3 mps 758 mmHg 73%
    02:00 +17°C° 0 mm 3 mps 757 mmHg 74%
    03:00 +17°C° 0 mm 3 mps 757 mmHg 74%
    04:00 +16°C° 0 mm 3 mps 757 mmHg 75%
    05:00 +17°C° 0 mm 3 mps 757 mmHg 72%
    06:00 +18°C° 0 mm 3 mps 757 mmHg 69%
    07:00 +19°C° 0 mm 3 mps 757 mmHg 66%
    08:00 +20°C° 0 mm 3 mps 757 mmHg 61%
    09:00 +22°C° 0 mm 3 mps 757 mmHg 56%
    10:00 +25°C° 0 mm 4 mps 757 mmHg 51%
    11:00 +26°C° 0 mm 3 mps 756 mmHg 49%
    12:00 +27°C° 0 mm 3 mps 756 mmHg 48%
    13:00 +27°C° 0 mm 3 mps 755 mmHg 46%
    14:00 +27°C° 0 mm 3 mps 755 mmHg 47%
    15:00 +27°C° 0 mm 3 mps 755 mmHg 47%
    16:00 +27°C° 0 mm 3 mps 755 mmHg 48%
    17:00 +26°C° 0 mm 3 mps 754 mmHg 53%
    18:00 +24°C° 0 mm 3 mps 754 mmHg 57%
    19:00 +22°C° 0 mm 3 mps 754 mmHg 62%
    20:00 +21°C° 0 mm 3 mps 754 mmHg 64%
    21:00 +20°C° 0 mm 3 mps 754 mmHg 66%
    22:00 +20°C° 0 mm 3 mps 755 mmHg 67%
    23:00 +19°C° 0 mm 3 mps 754 mmHg 69%

    25 August, Sunday

    Time Temperature Precipitation Wind Pressure Humidity
    00:00 +19°C° 0 mm 3 mps 754 mmHg 71%
    01:00 +19°C° 0 mm 3 mps 754 mmHg 73%
    02:00 +18°C° 0 mm 3 mps 754 mmHg 75%
    03:00 +18°C° 0 mm 3 mps 754 mmHg 77%
    04:00 +17°C° 0 mm 3 mps 754 mmHg 79%
    05:00 +18°C° 0 mm 3 mps 754 mmHg 76%
    06:00 +19°C° 0 mm 3 mps 754 mmHg 73%
    07:00 +20°C° 0 mm 4 mps 755 mmHg 71%
    08:00 +21°C° 0 mm 4 mps 755 mmHg 66%
    09:00 +23°C° 0 mm 4 mps 755 mmHg 61%
    10:00 +26°C° 0 mm 4 mps 755 mmHg 57%
    11:00 +27°C° 0 mm 4 mps 755 mmHg 54%
    12:00 +28°C° 0 mm 4 mps 755 mmHg 52%
    13:00 +29°C° 0 mm 3 mps 755 mmHg 49%
    14:00 +29°C° 0 mm 3 mps 754 mmHg 49%
    15:00 +29°C° 0 mm 3 mps 754 mmHg 49%
    16:00 +29°C° 0 mm 3 mps 754 mmHg 49%
    17:00 +27°C° 0 mm 3 mps 754 mmHg 54%
    18:00 +26°C° 0 mm 3 mps 754 mmHg 60%
    19:00 +24°C° 0 mm 3 mps 754 mmHg 65%
    20:00 +24°C° 0 mm 3 mps 754 mmHg 67%
    21:00 +22°C° 0 mm 3 mps 755 mmHg 68%
    22:00 +21°C° 0 mm 3 mps 755 mmHg 70%
    23:00 +21°C° 0 mm 3 mps 755 mmHg 72%
    Show more